Flag for Mexico Weather past 2 weeks in Playa del Carmen, Quintana Roo, Mexico

Now
72 °F

Passing clouds.


Feels Like: 65 °F
Forecast: 78 / 83 °F
Wind: 6 mph from Southeast

Location: Cozumel Civ / Mil

Current Time: Dec 22, 2014 at 10:54:23 PM

Latest Report: Dec 22, 2014 at 9:42 PM


Visibility: 7 mi

Pressure: 29.89 "Hg

Humidity: 100%

Dew point: 72 °F

Location of Playa del CarmenLocation

Historic Weather in Playa del Carmen — Graph

°F

Playa del Carmen temperature yesterday

Maximum temperature yesterday: 79 °F (at 1:48 PM)
Minimum temperature yesterday: 66 °F (at 11:09 PM)
Average temperature yesterday: 72 °F

Past Weeks' High & Low Weather Summary

 TemperatureHumidityPressure
High81 °F (Dec 10, 2:48 PM)100% (Dec 7, 9:40 PM)30.23 "Hg (Dec 7, 9:40 PM)
Low52 °F (Dec 15, 4:53 AM)51% (Dec 10, 2:48 PM)29.84 "Hg (Dec 22, 5:52 PM)
Average70 °F84%30.05 "Hg
* Reported Dec 7 9:40 PM — Dec 22 9:42 PM, Playa del Carmen, Weather by CustomWeather, © 2014

Note: Actual official high and low records may vary slightly from our data, if they occured in-between our weather recording intervals... More about our weather records

Advertising

Playa del Carmen weather history for previous 24 hours

 ConditionsComfort  
Time TempWeatherWind HumidityBarometerVisibility
9:42 PM
Dec 22
72 °FPassing clouds.6 mph100%29.89 "Hg7 mi
8:48 PM72 °FPassing clouds.7 mph100%29.93 "Hg7 mi
7:48 PM72 °FPassing clouds.6 mph100%29.88 "Hg7 mi
6:47 PM73 °FPassing clouds.5 mph94%29.86 "Hg7 mi
5:52 PM73 °FPassing clouds.7 mph89%29.84 "Hg7 mi
4:52 PM73 °FScattered clouds.7 mph94%29.84 "Hg8 mi
3:47 PM75 °FScattered clouds.14 mph94%29.85 "Hg8 mi
2:42 PM77 °FScattered clouds.14 mph94%29.87 "Hg8 mi
1:44 PM75 °FPartly sunny.15 mph94%29.87 "Hg8 mi
12:48 PM75 °FPartly sunny.10 mph94%29.89 "Hg8 mi
11:45 AM77 °FBroken clouds.14 mph89%29.90 "Hg8 mi
10:45 AM77 °FBroken clouds.13 mph89%29.94 "Hg8 mi
9:49 AM77 °FBroken clouds.15 mph89%29.97 "Hg8 mi
8:41 AM75 °FBroken clouds.12 mph94%29.99 "Hg8 mi
7:46 AM72 °FPartly sunny.3 mph100%29.96 "Hg8 mi
6:45 AM66 °FPassing clouds.No wind100%29.95 "Hg7 mi
5:42 AM66 °FPassing clouds.No wind100%29.91 "Hg7 mi
4:40 AM66 °FPassing clouds.3 mph100%29.93 "Hg7 mi
3:25 AM64 °FPassing clouds.5 mph100%29.94 "Hg7 mi
1:40 AM66 °FPassing clouds.No wind94%29.94 "Hg7 mi
12:41 AM66 °FPassing clouds.No wind100%29.95 "Hg7 mi
11:09 PM
Dec 21
66 °FPassing clouds.No wind100%29.97 "Hg7 mi
Weather by CustomWeather, © 2014

See weather overviewHow to use our weather pages